Location: Siloam Springs
(36.1881°N, 94.5403°W)
Time: 06:59:43
(UTC-05:00)

CUBESAT XI-V - Pass Details

Date: 03 June 2024
Orbit: 657 x 679 km, 98.2° (Epoch: 16 June)

Event Time Altitude Azimuth Distance (km) Brightness Sun altitude
Exits shadow 03:09:00 47° 110° (ESE) 871 ? -25.7°
Maximum altitude 03:09:45 53° 74° (ENE) 806 ? -25.6°
Drops below altitude 10° 03:14:10 10° 358° (N) 2,075 ? -25.2°
Sets 03:16:25 0° 353° (N) 2,992 ? -24.9°
